Sheldon, IA

12:58 AM CDT on October 22, 2017 (GMT -0500)
Sheldon Municipal

Weather History for KSHL - March, 2014

Change the Weather History Date:

Sunday, March 9, 2014

  Actual Average Record
Temperature  
Mean Temperature 38 °F -  
Max Temperature 55 °F 40 °F 58 °F (1967)
Min Temperature 21 °F 20 °F -11 °F (1984)
Degree Days  
Heating Degree Days 27    
Moisture  
Dew Point 30 °F    
Average Humidity 69    
Maximum Humidity 81    
Minimum Humidity 58    
Precipitation  
Precipitation 0.00 in - - ()
Sea Level Pressure  
Sea Level Pressure 29.86 in    
Wind  
Wind Speed 12 mph (SSW)    
Max Wind Speed 17 mph    
Max Gust Speed 26 mph    
Visibility 10 miles    
Events      
Averages and records for this station are not official NWS values.
T = Trace of Precipitation, MM = Missing Value Source: NWS Daily Summary

Daily Weather History Graph

Daily Weather History Graph

Search for Another Location

Airport or City:

Trip Planner

Search our weather history database for the weather conditions in past years. The results will help you decide how hot, cold, wet, or windy it might be!

Date:

Astronomy

Mar. 09, 2014 Rise Set
Actual Time 7:45 AM CDT 7:22 PM CDT
Civil Twilight 7:17 AM CDT 7:50 PM CDT
Nautical Twilight 6:44 AM CDT 8:23 PM CDT
Astronomical Twilight 6:11 AM CDT 8:57 PM CDT
Moon 1:09 PM CDT (3/9) 3:19 AM CDT (3/9)
Length of Visible Light 12h 33m
Length of Day
11h 36m
First Quarter, 61% of the Moon is Illuminated
Mar 9
First Quarter
Mar 16
Full
Mar 23
Last Quarter
Mar 30
New
Apr 7
First Quarter

Hourly Weather History & Observations

Time (CDT) Temp. Windchill Dew Point Humidity Pressure Visibility Wind Dir Wind Speed Gust Speed Precip Events Conditions
12:15 AM 21.2 °F 10.1 °F 15.8 °F 80% 30.16 in 10.0 mi South 10.4 mph - N/A   Clear
12:35 AM 21.2 °F 9.5 °F 15.8 °F 80% 30.15 in 10.0 mi South 11.5 mph - N/A   Clear
12:55 AM 21.2 °F 10.1 °F 15.8 °F 80% 30.13 in 10.0 mi South 10.4 mph - N/A   Clear
1:15 AM 21.2 °F 9.5 °F 15.8 °F 80% 30.12 in 10.0 mi South 11.5 mph - N/A   Clear
1:35 AM 21.2 °F 10.1 °F 15.8 °F 80% 30.12 in 10.0 mi South 10.4 mph - N/A   Clear
1:55 AM 23.0 °F 12.4 °F 17.6 °F 80% 30.11 in 10.0 mi South 10.4 mph - N/A   Clear
3:15 AM 23.0 °F 11.7 °F 17.6 °F 80% 30.10 in 10.0 mi South 11.5 mph - N/A   Clear
3:35 AM 23.0 °F 11.1 °F 17.6 °F 80% 30.08 in 10.0 mi South 12.7 mph - N/A   Clear
3:55 AM 24.8 °F 12.9 °F 17.6 °F 74% 30.08 in 10.0 mi South 13.8 mph - N/A   Clear
4:15 AM 24.8 °F 13.4 °F 17.6 °F 74% 30.06 in 10.0 mi South 12.7 mph - N/A   Clear
4:35 AM 24.8 °F 14.0 °F 17.6 °F 74% 30.04 in 10.0 mi South 11.5 mph - N/A   Clear
4:55 AM 24.8 °F 13.4 °F 17.6 °F 74% 30.04 in 10.0 mi South 12.7 mph - N/A   Clear
5:15 AM 24.8 °F 12.9 °F 17.6 °F 74% 30.02 in 10.0 mi South 13.8 mph 20.7 mph N/A   Clear
5:35 AM 24.8 °F 12.9 °F 17.6 °F 74% 30.01 in 10.0 mi South 13.8 mph - N/A   Clear
5:55 AM 24.8 °F 12.9 °F 17.6 °F 74% 29.99 in 10.0 mi South 13.8 mph - N/A   Clear
6:15 AM 24.8 °F 12.4 °F 17.6 °F 74% 29.98 in 10.0 mi South 15.0 mph - N/A   Clear
6:35 AM 24.8 °F 12.9 °F 17.6 °F 74% 29.97 in 10.0 mi South 13.8 mph - N/A   Clear
6:55 AM 26.6 °F 14.7 °F 17.6 °F 69% 29.96 in 10.0 mi South 15.0 mph 20.7 mph N/A   Clear
7:15 AM 26.6 °F 15.2 °F 19.4 °F 74% 29.95 in 10.0 mi SSW 13.8 mph 20.7 mph N/A   Clear
7:35 AM 26.6 °F 14.7 °F 19.4 °F 74% 29.95 in 10.0 mi South 15.0 mph 20.7 mph N/A   Clear
7:55 AM 28.4 °F 17.0 °F 21.2 °F 74% 29.94 in 10.0 mi SSW 15.0 mph - N/A   Clear
8:15 AM 28.4 °F 18.0 °F 21.2 °F 74% 29.93 in 10.0 mi South 12.7 mph - N/A   Clear
8:35 AM 28.4 °F 17.5 °F 21.2 °F 74% 29.91 in 10.0 mi South 13.8 mph - N/A   Clear
8:55 AM 30.2 °F 18.9 °F 21.2 °F 69% 29.89 in 10.0 mi South 16.1 mph - N/A   Clear
9:15 AM 30.2 °F 18.5 °F 23.0 °F 75% 29.88 in 10.0 mi South 17.3 mph 26.5 mph N/A   Clear
9:35 AM 32.0 °F 22.1 °F 24.8 °F 75% 29.89 in 10.0 mi South 13.8 mph - N/A   Clear
9:55 AM 32.0 °F 23.0 °F 24.8 °F 75% 29.88 in 10.0 mi SSW 11.5 mph - N/A   Clear
10:15 AM 33.8 °F 23.5 °F 26.6 °F 75% 29.87 in 10.0 mi SSW 16.1 mph - N/A   Clear
10:35 AM 35.6 °F 26.6 °F 26.6 °F 70% 29.87 in 10.0 mi SSW 13.8 mph - N/A   Clear
10:55 AM 37.4 °F 28.9 °F 28.4 °F 70% 29.86 in 10.0 mi SSW 13.8 mph 19.6 mph N/A   Clear
11:15 AM 39.2 °F 31.6 °F 28.4 °F 65% 29.85 in 10.0 mi SSW 12.7 mph - N/A   Clear
11:35 AM 39.2 °F 30.8 °F 30.2 °F 70% 29.83 in 10.0 mi SSW 15.0 mph 23.0 mph N/A   Clear
11:55 AM 41.0 °F 32.8 °F 30.2 °F 65% 29.83 in 10.0 mi SSW 16.1 mph - N/A   Clear
12:15 PM 42.8 °F 35.4 °F 32.0 °F 66% 29.83 in 10.0 mi SSW 15.0 mph 21.9 mph N/A   Clear
12:35 PM 42.8 °F 35.1 °F 32.0 °F 66% 29.82 in 10.0 mi SW 16.1 mph - N/A   Clear
12:55 PM 44.6 °F 39.2 °F 33.8 °F 66% 29.82 in 10.0 mi SW 10.4 mph 18.4 mph N/A   Clear
1:15 PM 46.4 °F 41.1 °F 33.8 °F 62% 29.81 in 10.0 mi SSW 11.5 mph - N/A   Clear
1:35 PM 48.2 °F - 35.6 °F 62% 29.79 in 10.0 mi SSW 15.0 mph - N/A   Clear
1:55 PM 50.0 °F - 35.6 °F 58% 29.79 in 10.0 mi SW 13.8 mph 20.7 mph N/A   Clear
2:15 PM 51.8 °F - 37.4 °F 58% 29.78 in 10.0 mi SW 11.5 mph - N/A   Clear
2:35 PM 51.8 °F - 39.2 °F 62% 29.77 in 10.0 mi SW 13.8 mph - N/A   Clear
2:55 PM 53.6 °F - 39.2 °F 58% 29.76 in 10.0 mi SW 13.8 mph 20.7 mph N/A   Clear
3:15 PM 53.6 °F - 39.2 °F 58% 29.76 in 10.0 mi WSW 12.7 mph - N/A   Clear
3:35 PM 55.4 °F - 41.0 °F 58% 29.76 in 10.0 mi WSW 11.5 mph - N/A   Clear
3:55 PM 55.4 °F - 41.0 °F 58% 29.75 in 10.0 mi WSW 11.5 mph - N/A   Clear
4:15 PM 53.6 °F - 41.0 °F 62% 29.75 in 10.0 mi WSW 10.4 mph - N/A   Clear
4:35 PM 53.6 °F - 41.0 °F 62% 29.75 in 10.0 mi WSW 10.4 mph - N/A   Clear
4:55 PM 53.6 °F - 41.0 °F 62% 29.75 in 10.0 mi WSW 11.5 mph - N/A   Clear
5:15 PM 53.6 °F - 42.8 °F 67% 29.74 in 10.0 mi WSW 10.4 mph - N/A   Clear
5:35 PM 51.8 °F - 41.0 °F 67% 29.73 in 10.0 mi WSW 11.5 mph - N/A   Clear
5:55 PM 51.8 °F - 41.0 °F 67% 29.73 in 10.0 mi SW 10.4 mph - N/A   Clear
6:15 PM 50.0 °F - 41.0 °F 71% 29.73 in 10.0 mi SW 9.2 mph - N/A   Clear
6:35 PM 50.0 °F - 41.0 °F 71% 29.74 in 10.0 mi North - - N/A   Clear
6:55 PM 50.0 °F - 39.2 °F 66% 29.73 in 10.0 mi North - - N/A   Clear
7:15 PM 48.2 °F - 39.2 °F 71% 29.74 in 10.0 mi SW 9.2 mph - N/A   Clear
7:35 PM 48.2 °F - 39.2 °F 71% 29.75 in 10.0 mi SW 9.2 mph - N/A   Clear
7:55 PM 48.2 °F - 37.4 °F 66% 29.74 in 10.0 mi SW 9.2 mph - N/A   Scattered Clouds
8:15 PM 48.2 °F - 37.4 °F 66% 29.74 in 10.0 mi SW 8.1 mph - N/A   Mostly Cloudy
8:35 PM 50.0 °F - 37.4 °F 62% 29.74 in 10.0 mi SW 8.1 mph - N/A   Overcast
8:55 PM 48.2 °F - 37.4 °F 66% 29.75 in 10.0 mi SW 8.1 mph - N/A   Overcast
9:15 PM 48.2 °F - 37.4 °F 66% 29.75 in 10.0 mi SSW 5.8 mph - N/A   Overcast
9:35 PM 48.2 °F - 37.4 °F 66% 29.74 in 10.0 mi SW 4.6 mph - N/A   Overcast
9:55 PM 48.2 °F - 37.4 °F 66% 29.74 in 10.0 mi SSW 5.8 mph - N/A   Overcast
10:15 PM 48.2 °F - 35.6 °F 62% 29.74 in 10.0 mi SW 5.8 mph - N/A   Overcast
10:35 PM 46.4 °F 44.3 °F 35.6 °F 66% 29.73 in 10.0 mi SSW 4.6 mph - N/A   Overcast
10:55 PM 44.6 °F - 35.6 °F 71% 29.73 in 10.0 mi Calm Calm - N/A   Scattered Clouds
11:15 PM 44.6 °F - 35.6 °F 71% 29.73 in 10.0 mi Calm Calm - N/A   Clear
11:35 PM 44.6 °F - 35.6 °F 71% 29.73 in 10.0 mi Calm Calm - N/A   Clear
11:55 PM 41.0 °F - 35.6 °F 81% 29.73 in - Calm Calm - N/A   Clear
12:15 AM 44.6 °F 40.7 °F 35.6 °F 71% 29.72 in 10.0 mi SW 6.9 mph - N/A   Clear
12:35 AM 46.4 °F 42.4 °F 33.8 °F 62% 29.72 in 10.0 mi SW 8.1 mph - N/A   Clear
12:55 AM 46.4 °F 41.5 °F 33.8 °F 62% 29.70 in 10.0 mi SW 10.4 mph - N/A   Clear